NOAA NWS Hourly Roundups by Site

Regional Weather Roundup for Des Moines, IA

To Select Another Site Choose from List

Select Site:  

000
ASUS43 KDMX 181306
RWRIA

WEATHER ROUNDUP FOR IOWA
NATIONAL WEATHER SERVICE DES MOINES IA
800 AM CDT MON JUN 18 2018

NOTE: "FAIR" INDICATES FEW OR NO CLOUDS BELOW 12,000 FEET WITH NO
SIGNIFICANT WEATHER AND/OR OBSTRUCTIONS TO VISIBILITY.

* - THESE STATIONS ARE NOT NWS STATIONS...THUS NOT UNDER NWS
QUALITY CONTROL.  THEY ALSO DO NOT REPORT WEATHER SUCH
AS PRECIPITATION OR FOG.

IAZ001>003-012>014-020>022-031>034-043>046-181400-
   NORTHWEST IOWA

CITY           SKY/WX    TMP DP  RH WIND       PRES   REMARKS
CARROLL *      CLOUDY    77  73  88 CALM      29.95F
CHEROKEE *     CLOUDY    71  71  99 CALM      29.95R
DENISON *      MOSUNNY   75  72  88 E5        29.96S
LE MARS *      PTSUNNY  N/A N/A N/A CALM      29.94S
ORANGE CITY *  LGT RAIN  72  72 100 CALM      29.96S
SHELDON *      CLOUDY    70  70 100 CALM      29.95S
SIOUX CITY     CLOUDY    72  70  93 CALM      29.92F
SPENCER        CLOUDY    72  70  93 CALM      29.96R
STORM LAKE *   CLOUDY    72  70  94 SE8       29.95S
$$

IAZ055>058-069>071-079>083-090>094-181400-
   SOUTHWEST IOWA

CITY           SKY/WX    TMP DP  RH WIND       PRES   REMARKS
ATLANTIC *     CLOUDY    79  72  78 S10       29.96S HX  82
AUDUBON *      CLOUDY    79  72  78 CALM      29.97S HX  82
CLARINDA *     SUNNY     77  72  83 S8        29.99S
COUNCIL BLFS * SUNNY     79  79 100 S5        29.95S HX  83
CRESTON *      MOSUNNY   77  72  83 SW9       30.00S
HARLAN  *      MOSUNNY   77  72  83 S8        29.99R
LAMONI         SUNNY     78  70  76 S9        30.00R HX  80
RED OAK *      PTSUNNY   77  72  83 MISG      29.97R
SHENANDOAH *   MOSUNNY   79  72  78 S8        29.96S HX  82
$$

IAZ047>049-059>061-072>074-084-181400-
   CENTRAL IOWA

CITY           SKY/WX    TMP DP  RH WIND       PRES   REMARKS
AMES           CLOUDY    80  72  76 SW9       29.95S HX  84
ANKENY *       MOSUNNY   81  72  74 SW7G15    29.97S HX  84
BOONE *        CLOUDY    77  72  83 SW5       29.95S
CHARITON *     MOSUNNY   81  72  74 SW13      29.99R HX  84
DES MOINES     PTSUNNY   80  71  74 SW7       29.95R HX  84
GRINNELL*      MOSUNNY   80  71  74 SW9       29.98S HX  83
KNOXVILLE *    MOSUNNY   81  72  74 SW10      29.96R HX  84
MARSHALLTOWN   CLOUDY    78  73  84 SW6       29.95R HX  81
NEWTON *       MOSUNNY   79  73  83 SW7       29.97S HX  82
PELLA *        MOSUNNY   82  70  68 SW7       29.98S HX  85
PERRY *        FAIR      79  74  86 S6        29.96S HX  82
$$

IAZ004>006-015-016-023>025-035-036-181400-
   NORTH CENTRAL IOWA

CITY           SKY/WX    TMP DP  RH WIND       PRES   REMARKS
ALGONA *       CLOUDY    72  70  94 E5        29.94F
CLARION *      CLOUDY    73  72  94 CALM      29.95S
ESTHERVILLE    CLOUDY    70  69  97 W5        29.94R
FORT DODGE *   CLOUDY    73  71  93 CALM      29.95S
MASON CITY     MOSUNNY   75  71  87 W3        29.96R
FOREST CITY *  FAIR      73  72  94 W3        29.96R
WEBSTER CITY * CLOUDY    73  72  94 CALM      29.93S
IOWA FALLS *   PTSUNNY   75  73  93 CALM      29.96F
$$

IAZ007>011-017>019-026>030-037>042-050>054-066-181400-
   NORTHEAST IOWA

CITY           SKY/WX    TMP DP  RH WIND       PRES   REMARKS
CEDAR RAPIDS   FAIR      80  73  79 SW10      29.96R HX  84
CHARLES CITY * PTSUNNY   75  72  88 W5        29.94F
CLINTON *        N/A    N/A N/A N/A MISG      29.98S
DECORAH *      PTSUNNY   75  75 100 CALM      29.93F
DUBUQUE        FAIR      80  71  74 SW13      29.96S HX  84
MONTICELLO *   FAIR      82  73  74 SW9       29.96R HX  88
OELWEIN *      PTSUNNY   79  72  78 SW10      29.95F HX  82
WATERLOO       FAIR      79  72  79 SW10      29.93S HX  82
$$

IAZ064-065-067-068-078-181400-
   EAST CENTRAL IOWA

CITY           SKY/WX    TMP DP  RH WIND       PRES   REMARKS
DAVENPORT      FAIR      81  72  74 SW9       30.00R HX  85
IOWA CITY      FAIR      81  73  76 SW7       29.98R HX  86
MT. PLEASANT * SUNNY     79  72  78 SW9       30.00R HX  82
MUSCATINE *      N/A    N/A N/A N/A MISG        N/A
QUAD CITIES    FAIR      82  73  74 SW8       29.98  HX  87
$$

IAZ062-063-075>077-085>089-095>099-181400-
   SOUTHEAST IOWA

CITY           SKY/WX    TMP DP  RH WIND       PRES   REMARKS
BURLINGTON     SUNNY     82  73  74 SW12      30.00R HX  87
FAIRFIELD *    SUNNY     81  72  74 S7        29.99R HX  84
FORT MADISON * SUNNY     81  73  78 SW9       30.02R HX  85
KEOKUK *       SUNNY     81  73  78 SW10G18   30.01R HX  85
OSKALOOSA *    FAIR      79  73  81 SW8       29.99R HX  82
CENTERVILLE *    N/A     82  73  74 SW9       30.02R HX  88
WASHINGTON *   SUNNY     81  75  83 SW9       30.00R HX  86
$$

ABBREVIATIONS USED IN REMARKS
   TC - TEMPERATURES IN CELSIUS
  WCI - WIND CHILL INDEX
   HX - HEAT INDEX
  VSB - VISIBILITY
$$



 

View Past Reports for Des Moines, IA.

Products Courtesy of NOAA-NWS
NWS Information Parsing Script by Ken True at Saratoga Weather - Script by SE Lincoln Weather.